sat.trackr.live / text

‹ back to catalog

MERCURY ONE (M1)

NORAD 66742 · 2025-276CE

PAYLOAD ACTIVE UNKNOWN

§ Identity

Operator
Country
US
Launch date
2025-11-28
Launch site
AFWTR
Launch vehicle
Mass (kg)
RCS (m²)

External: N2YO · Heavens-Above · Gunter

§ Orbital elements

Epoch: 2026-05-25T03:35:35.056320Z

Period
94.77 min
Inclination
97.4197°
Eccentricity
0.0003670
Mean motion
15.19399685 rev/d
Perigee alt
505.1 km
Apogee alt
510.2 km
Semi-major
6,885.8 km
B*
2.1713e-4
RAAN
219.0853°
Arg perigee
71.6124°
Mean anomaly
288.5510°
Rev number
2,692

§ Raw data

MERCURY ONE (M1)1 66742U 25276CE  26145.14971130  .00004529  00000+0  21713-3 0  99972 66742  97.4197 219.0853 0003670  71.6124 288.5510 15.19399685 26923

JSON: /api/v1/satellites/66742 · /tle

For live sub-satellite position, see the globe view (requires WebGL).

§ Visibility from observer

Set your observer location to see the next 7 days of passes ≥ 10°. The values pass through the URL so the page stays shareable.

No JS? Fill the form by hand. The geolocation button needs JavaScript.